Weather History for Custer, SD

Change the Weather History Date:

Tuesday, March 4, 2014

  Actual Average Record
Temperature  
Mean Temperature 36 °F 29 °F  
Max Temperature 47 °F 39 °F 63 °F (1992)
Min Temperature 24 °F 18 °F -17 °F (1960)
Degree Days  
Heating Degree Days 29 36  
Month to date heating degree days 194 146  
Since 1 July heating degree days 6052 5981  
Cooling Degree Days 0 0  
Month to date cooling degree days 0 0  
Year to date cooling degree days 0 0  
Moisture  
Dew Point 23 °F    
Average Humidity 62    
Maximum Humidity 81    
Minimum Humidity 42    
Precipitation  
Precipitation 0.00 in 0.03 in 0.44 in (1980)
Month to date precipitation 0.30 0.07  
Year to date precipitation 1.63 0.93  
Sea Level Pressure  
Sea Level Pressure 29.85 in    
Wind  
Wind Speed 7 mph (WNW)    
Max Wind Speed 20 mph    
Max Gust Speed 29 mph    
Visibility 10 miles    
Events      
T = Trace of Precipitation, MM = Missing Value Source: NWS Daily Summary

Daily Weather History Graph

Daily Weather History Graph

Search for Another Location

Airport:

Trip Planner

Search our weather history database for the weather conditions in past years. The results will help you decide how hot, cold, wet, or windy it might be!

Date:

Astronomy

Mar. 04, 2014 Rise Set
Actual Time 6:25 AM MST 5:47 PM MST
Civil Twilight 5:57 AM MST 6:15 PM MST
Nautical Twilight 5:24 AM MST 6:49 PM MST
Astronomical Twilight 4:50 AM MST 7:22 PM MST
Moon 8:05 AM MST (3/4) 10:05 PM MST (3/4)
Length of Visible Light 12h 18m
Length of Day
11h 21m
Waxing Crescent, 15% of the Moon is Illuminated
Mar 4
Waxing Crescent
Mar 8
First Quarter
Mar 16
Full
Mar 23
Last Quarter
Mar 30
New

Hourly Weather History & Observations

Time (MST) Temp. Windchill Dew Point Humidity Pressure Visibility Wind Dir Wind Speed Gust Speed Precip Events Conditions
12:53 AM 26.1 °F 20.5 °F 21.0 °F 81% 29.83 in 10.0 mi WNW 4.6 mph - N/A   Clear
1:53 AM 27.0 °F 23.0 °F 21.9 °F 81% 29.80 in 10.0 mi SW 3.5 mph - N/A   Clear
2:53 AM 30.9 °F 25.2 °F 24.1 °F 76% 29.75 in 10.0 mi WSW 5.8 mph - N/A   Clear
3:53 AM 30.9 °F 25.2 °F 25.0 °F 79% 29.75 in 10.0 mi WSW 5.8 mph - N/A   Clear
4:53 AM 32.0 °F 26.4 °F 25.0 °F 75% 29.75 in 10.0 mi WSW 5.8 mph - N/A   Clear
5:53 AM 32.0 °F 25.6 °F 24.1 °F 73% 29.78 in 10.0 mi West 6.9 mph - N/A   Clear
6:53 AM 34.0 °F 29.8 °F 23.0 °F 64% 29.77 in 10.0 mi NW 4.6 mph - N/A   Clear
7:53 AM 37.0 °F 34.5 °F 23.0 °F 57% 29.78 in 10.0 mi West 3.5 mph - N/A   Clear
8:53 AM 43.0 °F - 23.0 °F 45% 29.78 in 10.0 mi Calm Calm - N/A   Clear
9:53 AM 46.0 °F 43.9 °F 24.1 °F 42% 29.79 in 10.0 mi West 4.6 mph - N/A   Clear
10:53 AM 45.0 °F - 26.1 °F 48% 29.81 in 10.0 mi North - - N/A   Mostly Cloudy
11:53 AM 43.0 °F 36.8 °F 27.0 °F 53% 29.83 in 10.0 mi WNW 11.5 mph 18.4 mph N/A   Overcast
12:53 PM 42.1 °F 36.6 °F 26.1 °F 53% 29.83 in 10.0 mi WNW 9.2 mph - N/A   Overcast
1:53 PM 43.0 °F 36.4 °F 26.1 °F 51% 29.83 in 10.0 mi WNW 12.7 mph - N/A   Partly Cloudy
2:53 PM 42.1 °F 34.5 °F 24.1 °F 49% 29.82 in 10.0 mi WNW 15.0 mph 24.2 mph N/A   Clear
3:53 PM 42.1 °F 34.9 °F 21.0 °F 43% 29.83 in 10.0 mi NW 13.8 mph 19.6 mph N/A   Partly Cloudy
4:53 PM 39.9 °F 35.8 °F 21.9 °F 49% 29.88 in 10.0 mi NW 5.8 mph - N/A   Scattered Clouds
5:53 PM 37.0 °F 29.8 °F 21.0 °F 52% 29.92 in 10.0 mi WNW 10.4 mph - N/A   Clear
6:53 PM 35.1 °F 30.1 °F 21.9 °F 59% 29.95 in 10.0 mi NW 5.8 mph - N/A   Clear
7:53 PM 33.1 °F 27.7 °F 23.0 °F 66% 29.96 in 10.0 mi NNW 5.8 mph - N/A   Clear
8:53 PM 32.0 °F 26.4 °F 23.0 °F 69% 29.96 in 10.0 mi NNW 5.8 mph - N/A   Clear
9:53 PM 30.9 °F 27.5 °F 21.9 °F 69% 29.96 in 10.0 mi North 3.5 mph - N/A   Clear
10:53 PM 27.0 °F 23.0 °F 21.0 °F 78% 30.00 in 10.0 mi West 3.5 mph - N/A   Clear
11:53 PM 28.9 °F 25.2 °F 21.0 °F 72% 30.01 in 10.0 mi NW 3.5 mph - N/A   Clear